SCP
0 0 0 0 0 0 0 0 0 0 0 0 0 0 0 0 0 0 0 0 0 0 0 0 0 0 0 0 0 0 0 0 0 0 0 0 0 0 0 0 0 0 0
0 0 0 0 0 0 0 0 0 0 0 0 0 0 0 0 0 0 0 0 0 0 0 0 0 0 0 0 0 0 0 0 0 0 0 0 0 0 0 0 0 0 0
0 0 0 0 0 0 0 0 0 0 0 0 0 0 0 0 0 0 0 0 0 0 0 0 0 0 0 0 0 0 0 0 0 0 0 0 0 0 0 0 0 0 0
0 0 0 0 0 0 0 0 0 0 0 0 0 0 0 0 0 0 0 0 0 0 0 0 0 0 0 0 0 0 0 0 0 0 0 0 0 0 0 0 0 0 0
0 0 0 0 0 0 0 0 0 0 0 0 0 0 0 0 0 0 0 0 0 0 0 0 0 0 0 0 0 0 0 0 0 0 0 0 0 0 0 0 0 0 0
0 0 0 0 0 0 0 0 0 0 0 0 0 0 0 0 0 0 0 0 0 0 0 0 0 0 0 0 0 0 0 0 0 0 0 0 0 0 0 0 0 0 0
0 0 0 0 0 0 0 0 0 0 0 0 0 0 0 0 0 0 0 0 0 0 0 0 0 0 0 0 0 0 0 0 0 0 0 0 0 0 0 0 0 0 0
0 0 0 0 0 0 0 0 0 0 0 0 0 0 0 0 0 0 0 0 0 0 0 0 0 0 0 0 0 0 0 0 0 0 0 0 0 0 0 0 0 0 0
0 0 0 0 0 0 0 0 0 0 0 0 0 0 0 0 0 0 0 0 0 0 0 0 0 0 0 0 0 0 0 0 0 0 0 0 0 0 0 0 0 0 0
0 0 0 0 0 0 0 0 0 0 0 0 0 0 0 0 0 0 0 0 0 0 0 0 0 0 0 0 0 0 0 0 0 0 0 0 0 0 0 0 0 0 0
0 0 0 0 0 0 0 0 0 0 0 0 0 0 0 0 0 0 0 0 0 0 0 0 0 0 0 0 0 0 0 0 0 0 0 0 0 0 0 0 0 0 0
0 0 0 0 0 0 0 0 0 0 0 0 0 0 0 0 0 0 0 0 0 0 0 0 0 0 0 0 0 0 0 0 0 0 0 0 0 0 0 0 0 0 0
0 0 0 0 0 0 0 0 0 0 0 0 0 0 0 0 0 0 0 0 0 0 0 0 0 0 0 0 0 0 0 0 0 0 0 0 0 0 0 0 0 0 0
0 0 0 0 0 0 0 0 0 0 0 0 0 0 0 0 0 0 0 0 0 0 0 0 0 0 0 0 0 0 0 0 0 0 0 0 0 0 0 0 0 0 0
0 0 0 0 0 0 0 0 0 0 0 0 0 0 0 0 0 0 0 0 0 0 0 0 0 0 0 0 0 0 0 0 0 0 0 0 0 0 0 0 0 0 0
0 0 0 0 0 0 0 0 0 0 0 0 0 0 0 0 0 0 0 0 0 0 0 0 0 0 0 0 0 0 0 0 0 0 0 0 0 0 0 0 0 0 0
0 0 0 0 0 0 0 0 0 0 0 0 0 0 0 0 0 0 0 0 0 0 0 0 0 0 0 0 0 0 0 0 0 0 0 0 0 0 0 0 0 0 0
0 0 0 0 0 0 0 0 0 0 0 0 0 0 0 0 0 0 0 0 0 0 0 0 0 0 0 0 0 0 0 0 0 0 0 0 -0 0 0 0 0 0 0
0 0 0 0 0 0 0 0 0 0 0 0 0 0 0 0 0 0 0 0 0 0 0 0 0 0 0 0 0 0 0 0 0 0 0 0 -0 0 0 0 0 0 0
0 0 0 0 0 0 0 0 0 0 0 0 0 0 0 0 0 0 0 0 0 0 0 0 0 0 0 -0 -0 -0 0 0 0 0 0 -0 -0 0 0 0 0 0 0
0 0 0 0 0 0 0 0 0 0 0 0 0 0 0 0 0 0 0 0 0 0 0 0 0 0 0 -0 -0 -0 -0 -0 0 0 0 0 0 0 0 0 0 0 0
0 0 0 0 0 0 0 0 0 0 0 0 0 0 0 0 0 0 0 0 0 0 0 0 0 0 0 -0 -0 -0 -0 -0 0 0 0 0 0 0 0 0 0 0 0
0 0 0 0 0 0 0 0 0 0 0 0 0 0 0 0 0 0 0 0 0 0 0 0 0 0 0 0 0 -0 -0 -0 0 0 0 0 0 0 0 0 0 0 0
0 0 0 0 0 0 0 0 0 0 0 0 0 0 0 0 0 0 0 0 0 0 0 0 0 0 0 0 0 0 0 0 0 0 0 0 0 0 0 0 0 0 0
0 0 0 0 0 0 0 0 0 0 0 0 0 0 0 0 0 0 0 0 0 0 0 0 0 0 0 0 0 0 0 0 0 0 0 0 0 0 0 0 0 0 0
0 0 0 0 0 0 0 0 0 0 0 0 0 0 0 0 0 0 0 0 0 0 0 0 0 0 0 0 0 0 0 0 0 0 0 0 0 0 0 0 0 0 0
Wind_Speed
5 5 5 6 6 6 6 7 7 7 8 8 8 8 8 8 7 4 3 2 0 1 2 4 5 5 4 5 5 5 5 4 4 2 1 2 3 4 5 4 5 5 6
3 4 5 5 5 6 6 7 7 7 7 7 7 8 8 8 7 6 5 4 2 1 2 3 4 4 5 4 4 5 5 5 4 4 3 2 3 4 5 5 4 5 4
2 3 4 5 5 5 6 6 6 6 7 7 7 7 7 7 7 7 5 4 3 1 1 2 3 4 4 3 4 4 4 4 4 4 4 2 2 3 4 4 5 4 5
1 3 4 4 4 4 5 5 6 6 6 6 7 7 7 6 6 6 6 5 4 3 2 2 2 4 4 5 4 5 4 4 4 4 4 3 3 3 4 5 5 4 5
1 2 3 3 4 4 5 5 5 6 6 6 6 6 7 6 6 7 5 5 5 4 4 3 2 3 6 5 4 4 5 4 4 4 4 3 3 4 5 4 6 6 5
1 1 2 3 4 4 4 4 5 5 5 5 6 6 7 7 11 11 7 4 4 4 4 3 3 3 5 6 7 7 7 6 5 4 3 4 4 4 5 7 7 7 4
1 1 2 3 3 4 4 4 4 5 5 5 6 6 6 8 13 12 10 5 4 4 4 3 3 4 5 4 5 6 5 6 6 5 5 5 5 5 7 8 7 5 5
2 1 1 2 2 3 4 4 4 3 3 4 4 5 6 9 14 13 11 6 5 4 4 3 3 3 3 4 5 5 4 3 3 3 4 4 4 6 7 7 8 8 8
2 1 1 1 1 2 3 4 3 3 3 3 3 4 5 8 14 13 10 4 4 5 4 5 4 3 4 6 6 5 5 3 4 5 5 5 7 10 11 9 9 10 7
3 2 2 2 1 1 2 3 3 2 3 3 3 4 5 6 12 14 10 3 4 4 4 5 6 4 5 6 5 5 5 3 4 5 5 6 6 9 11 9 9 9 7
4 3 2 2 2 1 2 2 3 3 4 4 4 3 5 7 10 13 11 4 3 3 3 3 3 6 6 6 5 4 5 5 5 5 5 5 5 5 5 5 5 7 6
4 4 3 3 2 1 1 2 3 3 4 4 4 4 4 5 8 10 11 9 5 3 2 2 2 5 7 7 5 6 8 7 4 5 5 5 4 4 5 6 6 5 4
5 4 4 3 2 1 1 1 2 2 2 2 2 3 4 4 6 11 11 10 8 3 2 3 5 6 6 6 7 8 6 4 4 5 5 4 3 4 5 5 7 7 8
6 5 4 4 3 2 1 1 1 0 1 2 2 2 3 4 4 5 5 5 6 4 3 4 7 8 6 6 5 5 4 4 4 4 4 3 4 4 5 4 5 5 5
6 5 5 5 4 4 3 2 2 2 3 2 1 1 1 3 5 8 5 4 3 2 2 3 3 3 4 3 4 3 3 3 4 3 4 4 5 5 4 3 3 4 4
5 5 4 4 4 4 3 2 3 3 5 4 4 3 3 4 7 8 7 6 4 3 4 3 3 3 3 3 3 3 3 3 3 4 4 4 4 4 4 3 3 4 5
6 5 4 4 4 4 4 4 3 3 5 6 6 5 5 5 6 6 6 5 4 4 4 3 2 2 2 2 2 2 2 2 3 4 4 4 4 4 4 4 4 4 4
6 6 6 5 5 5 5 5 4 3 3 3 5 7 7 6 5 5 4 2 3 3 2 2 2 2 2 2 2 2 2 3 3 3 3 3 4 4 4 4 4 4 4
6 5 5 5 5 5 4 4 4 4 4 3 2 3 5 4 4 4 1 1 1 1 1 1 1 2 2 2 2 3 3 3 3 3 3 4 4 4 4 4 4 6 4
6 9 8 5 5 4 4 4 4 4 4 4 4 4 2 2 1 1 1 1 2 2 2 2 1 2 2 2 3 3 3 3 4 3 3 3 3 4 5 5 5 4 3
6 7 10 6 5 5 5 5 5 5 5 5 6 6 8 5 4 4 3 3 3 3 3 3 2 2 2 2 2 3 4 3 3 4 4 4 4 4 4 4 4 4 4
7 6 6 6 5 5 5 5 5 5 6 6 5 5 11 5 4 4 4 5 4 4 4 4 3 3 3 3 3 3 4 4 4 4 4 4 4 4 4 4 4 4 4
8 7 6 6 6 7 6 5 5 5 6 6 5 5 6 6 6 6 6 5 5 4 4 4 4 3 3 3 3 3 4 4 4 5 5 5 4 4 4 4 5 4 4
9 9 8 6 6 6 6 6 6 6 6 6 6 6 7 7 7 7 7 6 5 5 5 5 5 7 7 5 3 3 3 3 4 4 7 6 6 5 4 4 5 5 5
10 9 9 8 7 7 6 6 6 7 6 6 7 7 7 7 8 7 7 6 7 7 8 7 6 6 9 9 7 5 7 8 6 4 4 5 6 6 5 5 4 4 4
11 11 9 8 8 7 7 7 7 7 7 7 6 7 7 8 8 8 7 7 7 7 7 7 8 9 9 8 10 11 11 11 10 9 5 4 5 5 5 4 6 5 5
Wind_Direction
341 344 354 351 352 1 8 6 5 7 11 16 16 17 18 14 8 9 10 27 104 179 173 183 189 180 179 185 182 180 179 165 167 166 158 150 156 159 153 154 162 176 186
339 354 357 358 3 9 7 4 8 12 13 17 18 20 19 16 9 13 15 17 29 90 154 161 170 169 166 173 177 179 178 168 160 160 154 149 154 162 151 148 149 156 154
359 10 7 3 5 5 4 4 10 14 14 15 17 17 12 9 10 9 11 14 19 27 89 135 149 149 157 164 170 172 171 163 151 149 150 141 127 135 129 121 118 114 127
21 20 9 357 358 1 6 9 9 10 13 10 10 8 2 359 5 7 10 15 25 31 58 100 129 145 155 157 163 165 158 153 147 145 142 137 126 131 133 132 125 114 112
79 27 0 358 9 13 12 9 7 8 11 3 6 4 359 0 6 8 7 16 28 38 46 63 107 136 149 152 153 155 150 145 146 144 142 139 138 147 149 140 134 121 101
128 55 15 24 26 20 13 9 6 2 357 2 5 2 4 5 9 18 21 20 26 43 48 48 74 91 121 133 143 154 155 153 151 146 146 153 152 147 136 141 139 135 124
133 97 56 48 36 16 11 10 360 352 354 359 360 1 359 355 11 19 28 32 30 38 45 53 70 76 78 94 112 116 132 150 154 149 151 162 157 154 146 147 146 133 120
127 110 95 66 42 18 13 0 346 341 345 350 357 358 359 3 15 20 29 34 39 38 44 54 74 73 86 106 104 94 86 87 129 143 154 162 157 152 149 141 131 110 102
146 156 161 119 60 19 359 339 331 340 345 346 353 4 6 358 12 22 31 26 40 36 39 49 61 76 99 110 109 108 96 77 80 103 119 128 140 140 136 130 132 134 129
187 187 173 164 140 352 328 325 328 337 337 347 12 11 10 1 9 21 31 33 40 34 37 38 41 64 87 105 114 117 110 96 92 88 83 91 115 134 139 142 144 144 136
191 179 169 183 202 253 322 336 345 357 9 15 23 15 11 6 6 17 26 34 39 39 37 30 20 49 81 93 101 102 109 104 96 94 90 89 95 106 116 119 132 146 143
187 183 191 209 224 182 19 2 9 21 28 19 20 11 0 359 4 10 23 33 42 55 36 17 20 55 78 86 86 98 100 92 87 87 86 86 95 101 104 105 101 90 87
194 202 208 212 223 205 172 59 22 22 27 12 14 4 343 346 355 10 16 21 25 38 26 43 69 72 73 73 81 90 92 91 93 93 90 80 77 95 102 97 90 86 76
200 210 209 206 218 228 210 177 143 18 3 352 352 344 333 337 347 352 353 358 5 22 32 55 70 73 68 69 71 69 76 94 105 105 101 90 81 82 87 96 103 101 88
203 208 204 203 203 211 217 216 209 218 208 217 252 274 310 325 320 331 340 341 340 2 62 61 58 60 60 58 61 66 77 92 95 97 103 101 96 94 86 76 88 87 95
199 208 203 200 202 202 206 238 267 247 252 243 236 238 265 279 308 330 344 358 21 76 83 80 79 79 86 90 95 87 83 99 105 108 106 108 113 111 99 81 83 98 106
199 203 198 196 198 199 200 208 238 271 270 271 269 268 267 286 311 330 343 8 43 85 87 91 95 102 107 103 104 107 110 114 116 118 118 119 118 115 113 112 107 105 107
202 204 195 196 200 202 203 204 204 210 240 266 264 255 260 275 299 321 341 37 45 50 89 111 114 118 124 128 130 122 117 117 116 123 125 127 128 128 131 136 137 136 133
197 199 199 198 202 205 205 202 204 207 213 227 245 266 253 265 294 309 353 115 148 136 126 127 133 132 133 141 143 138 134 134 134 132 134 138 139 133 138 148 151 150 138
200 204 193 194 201 206 206 205 207 207 209 210 217 223 207 184 234 260 225 196 191 194 185 169 159 147 142 142 144 142 136 138 140 138 144 146 147 146 151 155 158 159 165
196 204 202 196 203 205 206 209 210 206 206 211 220 213 186 188 208 213 211 209 206 203 198 192 185 172 159 152 149 153 154 158 160 156 154 155 152 151 156 157 162 164 159
191 194 194 200 207 212 213 213 209 209 210 213 221 215 201 196 203 207 212 217 213 208 199 189 190 190 183 175 167 163 166 170 173 168 164 161 159 156 152 154 159 161 162
192 194 197 203 207 217 219 215 210 209 211 209 203 196 193 203 209 210 213 213 209 207 201 192 190 196 198 191 182 174 177 187 186 176 168 167 165 166 162 164 167 164 174
195 197 199 201 204 209 214 217 215 213 211 207 202 201 203 207 210 213 212 208 204 204 200 197 199 203 201 196 193 188 188 189 180 182 178 172 173 172 169 170 174 179 182
198 201 201 202 202 205 212 217 217 216 213 210 206 206 208 208 212 215 212 205 201 204 205 202 203 206 208 204 198 197 198 192 184 174 171 171 176 178 176 177 176 175 176
202 203 204 203 202 203 206 212 216 215 215 215 211 208 207 208 211 212 207 202 203 207 207 206 208 207 207 206 206 203 200 196 192 185 172 170 175 181 180 183 185 183 182